Vorticity
2 6 2 5 6 12 15 14 9 11 14 9 9 9 9 9 10 4 3 3 2 4 7 9 11 9 7 5 8 13 10 8 4 7 6 8 6 7 10 7 11 15 9
6 2 7 9 12 11 7 7 13 14 10 7 9 7 6 5 5 3 3 8 7 9 3 3 5 4 7 5 8 19 13 12 10 5 5 4 5 1 -3 -1 -2 2 8
4 11 10 12 14 20 21 19 10 3 8 9 7 5 7 10 12 13 13 16 15 10 12 10 7 7 5 2 2 8 7 8 7 4 11 10 6 5 8 5 9 7 5
18 13 14 11 8 1 3 3 5 7 6 10 11 11 10 11 15 11 11 9 9 7 8 9 10 12 9 8 6 7 6 9 6 12 6 15 -0 1 9 10 4 7 6
10 11 8 6 8 10 10 9 9 11 13 12 12 14 18 15 9 7 6 7 9 10 12 12 11 10 10 10 10 9 8 7 7 12 15 11 9 8 11 -1 13 10 6
13 11 7 12 11 12 13 13 12 8 1 -0 1 1 4 10 13 12 9 6 6 6 6 6 8 9 10 11 11 10 9 8 9 10 11 10 12 11 11 12 10 6 14
12 10 12 16 16 14 8 4 3 2 5 4 5 5 6 4 3 4 4 4 4 4 4 3 2 2 2 4 6 6 8 9 9 9 10 14 13 11 14 13 11 14 8
14 13 10 4 2 3 4 3 2 1 2 2 3 3 2 2 3 3 3 4 4 5 5 6 6 5 5 5 5 4 3 3 2 2 5 4 6 5 6 8 13 13 13
4 3 2 2 1 2 1 1 3 3 4 3 3 3 2 3 3 3 2 1 1 1 0 -0 2 5 5 5 5 3 3 4 3 4 7 5 3 4 4 4 4 6 14
1 1 1 1 3 2 4 4 3 4 3 5 4 4 4 4 4 4 4 2 0 -1 -1 2 5 4 2 3 6 5 6 5 3 4 4 4 5 7 4 4 4 2 4
1 3 4 4 4 5 -1 3 3 3 2 3 4 4 4 3 2 4 4 6 8 7 8 9 8 9 8 7 4 4 3 1 3 3 8 6 2 3 3 5 6 5 2
2 3 1 2 4 3 5 4 4 3 5 5 4 3 4 4 6 6 4 4 4 7 5 2 2 4 5 5 6 9 8 6 5 5 7 5 8 6 3 2 3 5 5
3 3 4 4 4 4 4 4 6 6 7 5 4 3 5 6 5 5 5 6 4 5 3 2 1 5 7 4 2 7 7 7 8 7 7 7 4 5 10 5 3 2 2
6 5 4 3 4 5 4 1 5 5 5 4 3 4 5 5 5 6 6 5 5 4 3 1 1 3 11 7 5 9 9 7 7 7 6 4 9 7 7 8 8 4 3
4 4 2 2 5 2 1 6 5 5 5 4 4 4 3 4 6 7 7 4 3 6 7 6 9 13 13 14 14 10 8 8 9 8 6 9 9 7 6 7 8 7 7
4 3 5 5 2 2 3 6 4 4 6 5 4 3 3 5 5 6 4 3 6 6 8 9 8 6 5 5 5 6 7 7 6 6 8 6 8 8 6 5 5 6 5
5 5 6 3 0 1 4 4 4 3 3 5 4 3 5 3 5 7 8 9 10 8 6 5 5 4 5 5 4 5 4 5 6 6 5 7 7 8 7 8 8 8 7
7 4 2 1 3 3 3 4 2 6 4 4 6 6 5 6 9 10 11 10 8 2 1 0 3 3 4 4 2 3 3 2 4 3 6 9 9 4 6 8 7 6 7
3 4 2 2 3 4 4 6 3 5 5 3 6 7 6 7 8 6 6 5 6 3 3 2 2 5 4 6 4 4 4 3 3 5 4 3 7 7 5 6 7 6 9
5 2 2 2 4 6 6 2 6 3 3 6 7 9 6 9 4 6 3 4 3 2 0 1 4 3 4 6 5 4 4 5 6 5 2 4 2 2 7 10 2 7 8
1 3 3 5 4 3 8 -2 3 5 5 7 8 7 7 4 6 4 5 5 5 6 3 7 5 5 4 6 7 7 7 5 7 10 15 11 7 7 5 3 11 13 6
2 3 2 4 3 6 3 4 5 6 9 8 8 4 4 7 6 3 4 4 5 6 9 9 9 10 8 7 9 8 9 6 10 9 8 11 14 17 12 9 5 5 10
3 3 3 5 9 4 3 5 11 11 12 6 4 6 7 7 4 6 6 8 7 6 7 8 8 8 8 9 7 9 11 9 10 11 15 10 9 9 21 17 20 9 10
3 6 6 7 6 8 11 8 13 7 5 7 7 5 4 4 9 9 7 8 8 7 8 7 11 10 9 11 11 7 6 11 12 15 2 9 16 8 7 16 5 15 22
5 8 7 7 9 11 14 7 5 9 6 5 6 7 7 7 3 6 8 5 5 11 5 8 4 4 6 8 9 11 10 6 3 6 13 5 3 5 5 7 4 10 4
7 8 6 13 13 7 11 8 4 4 6 4 2 3 7 8 8 9 6 9 7 10 11 7 3 8 10 8 10 8 10 12 13 4 9 15 11 6 5 3 15 1 6
Height
5851 5850 5850 5850 5849 5847 5845 5844 5842 5840 5839 5838 5836 5836 5834 5833 5833 5832 5830 5828 5828 5827 5827 5828 5827 5828 5827 5827 5826 5827 5827 5828 5829 5829 5827 5826 5825 5825 5828 5828 5829 5830 5832
5848 5848 5847 5845 5844 5843 5841 5839 5839 5838 5837 5835 5834 5832 5832 5831 5828 5828 5826 5825 5825 5823 5822 5822 5823 5824 5824 5823 5823 5824 5823 5825 5826 5826 5825 5824 5821 5819 5817 5816 5820 5824 5825
5844 5844 5843 5841 5840 5839 5838 5837 5836 5835 5835 5833 5831 5830 5828 5827 5826 5824 5823 5823 5821 5820 5819 5818 5817 5819 5818 5818 5819 5819 5820 5821 5822 5822 5821 5823 5819 5820 5819 5818 5819 5821 5820
5845 5839 5839 5839 5838 5837 5836 5835 5834 5834 5832 5832 5830 5828 5825 5824 5823 5823 5822 5821 5819 5818 5818 5817 5815 5816 5816 5815 5815 5816 5815 5816 5817 5818 5817 5815 5817 5818 5817 5815 5816 5814 5815
5840 5839 5838 5837 5836 5836 5835 5835 5834 5832 5831 5831 5829 5826 5825 5823 5822 5821 5820 5819 5818 5817 5817 5816 5815 5815 5814 5813 5812 5813 5813 5812 5813 5812 5812 5812 5809 5813 5814 5811 5811 5810 5810
5836 5836 5836 5835 5835 5833 5833 5832 5831 5831 5830 5828 5827 5826 5825 5824 5822 5820 5819 5818 5817 5816 5815 5814 5813 5812 5811 5811 5811 5811 5809 5809 5809 5808 5809 5809 5807 5808 5807 5807 5807 5806 5807
5834 5834 5834 5834 5834 5834 5833 5832 5831 5830 5830 5828 5827 5826 5824 5823 5821 5821 5819 5819 5817 5816 5814 5813 5812 5811 5810 5809 5808 5807 5806 5806 5806 5804 5804 5806 5804 5802 5802 5802 5802 5803 5803
5833 5834 5834 5833 5833 5833 5832 5831 5830 5829 5829 5826 5825 5825 5823 5822 5821 5820 5819 5817 5816 5815 5814 5812 5811 5810 5809 5807 5805 5804 5803 5802 5802 5801 5802 5801 5799 5799 5798 5797 5797 5797 5798
5833 5833 5834 5833 5833 5832 5831 5830 5830 5828 5827 5827 5825 5824 5823 5821 5821 5819 5817 5816 5814 5813 5812 5810 5809 5807 5806 5805 5803 5802 5801 5799 5798 5797 5796 5797 5796 5795 5794 5793 5793 5792 5793
5832 5832 5833 5832 5831 5830 5831 5830 5829 5828 5826 5825 5824 5822 5821 5819 5818 5815 5814 5812 5810 5809 5807 5805 5804 5803 5802 5800 5799 5798 5797 5796 5794 5792 5792 5792 5790 5791 5790 5789 5789 5788 5788
5831 5831 5831 5831 5830 5830 5827 5828 5827 5825 5823 5822 5820 5819 5817 5816 5814 5813 5809 5808 5806 5803 5801 5800 5798 5797 5796 5795 5793 5793 5791 5790 5789 5787 5787 5787 5785 5785 5785 5784 5784 5784 5784
5830 5830 5830 5828 5828 5828 5828 5826 5823 5822 5820 5819 5817 5814 5812 5810 5808 5807 5805 5802 5800 5797 5795 5793 5791 5790 5789 5787 5786 5785 5783 5783 5782 5780 5781 5781 5779 5778 5778 5778 5777 5778 5778
5829 5828 5828 5827 5826 5827 5824 5822 5822 5820 5817 5815 5812 5809 5808 5804 5803 5800 5798 5795 5793 5791 5789 5788 5785 5782 5780 5779 5776 5777 5776 5775 5774 5772 5772 5774 5772 5771 5771 5771 5771 5771 5771
5827 5826 5826 5825 5824 5823 5821 5819 5817 5813 5811 5808 5806 5805 5802 5799 5796 5794 5791 5788 5786 5784 5783 5780 5778 5776 5774 5772 5769 5768 5766 5766 5765 5764 5763 5766 5765 5764 5764 5763 5763 5764 5764
5824 5823 5823 5822 5821 5819 5818 5815 5812 5809 5806 5803 5800 5798 5795 5792 5790 5788 5785 5782 5779 5777 5774 5772 5769 5767 5765 5764 5762 5761 5759 5758 5757 5756 5753 5756 5757 5756 5756 5756 5756 5756 5756
5820 5820 5820 5819 5818 5816 5814 5810 5807 5805 5801 5797 5795 5793 5791 5787 5783 5780 5777 5774 5771 5768 5765 5763 5760 5757 5755 5754 5752 5751 5752 5749 5747 5747 5747 5744 5746 5745 5746 5746 5747 5748 5747
5819 5817 5816 5814 5813 5810 5807 5806 5801 5799 5795 5791 5789 5787 5784 5780 5776 5773 5768 5765 5762 5760 5757 5755 5753 5750 5748 5746 5744 5742 5741 5742 5741 5738 5737 5735 5735 5737 5734 5734 5735 5736 5737
5816 5814 5811 5809 5807 5805 5801 5799 5796 5792 5789 5785 5782 5776 5774 5773 5766 5763 5758 5755 5752 5749 5747 5744 5741 5738 5736 5734 5732 5730 5728 5728 5728 5728 5727 5724 5722 5723 5724 5723 5723 5723 5724
5812 5809 5806 5802 5799 5800 5795 5793 5788 5786 5781 5775 5771 5766 5764 5760 5755 5753 5748 5745 5741 5738 5734 5730 5728 5723 5720 5717 5715 5714 5712 5710 5709 5709 5710 5711 5711 5708 5708 5711 5710 5709 5710
5807 5803 5802 5796 5794 5791 5786 5784 5781 5776 5772 5767 5764 5756 5755 5749 5746 5741 5736 5732 5729 5725 5721 5717 5714 5710 5707 5703 5700 5698 5697 5694 5692 5690 5690 5690 5691 5691 5690 5691 5694 5695 5693
5802 5799 5797 5792 5789 5784 5781 5776 5772 5767 5762 5757 5752 5746 5744 5738 5736 5730 5726 5721 5716 5711 5707 5703 5699 5696 5693 5687 5683 5682 5681 5680 5678 5675 5672 5670 5670 5671 5671 5671 5673 5675 5677
5796 5793 5789 5786 5782 5777 5773 5767 5764 5760 5754 5749 5744 5739 5734 5729 5725 5719 5714 5709 5704 5699 5694 5688 5683 5679 5677 5670 5663 5660 5660 5663 5658 5655 5653 5654 5652 5650 5648 5650 5652 5654 5657
5790 5786 5782 5778 5775 5771 5764 5760 5756 5752 5746 5740 5736 5728 5722 5716 5710 5705 5699 5694 5688 5682 5678 5670 5663 5658 5654 5652 5643 5635 5632 5632 5633 5636 5636 5634 5630 5629 5629 5629 5628 5630 5631
5783 5779 5775 5771 5766 5763 5758 5752 5747 5742 5737 5730 5723 5716 5711 5703 5698 5691 5685 5678 5672 5665 5660 5653 5647 5640 5633 5631 5626 5618 5612 5605 5603 5606 5610 5610 5606 5609 5609 5611 5607 5607 5609
5775 5771 5767 5761 5757 5752 5750 5744 5738 5732 5725 5718 5711 5704 5697 5691 5684 5676 5668 5661 5654 5646 5639 5633 5626 5619 5612 5604 5598 5594 5591 5585 5577 5568 5578 5586 5585 5583 5585 5589 5589 5588 5588
5768 5764 5759 5754 5748 5742 5737 5733 5727 5721 5714 5707 5700 5692 5684 5676 5667 5659 5649 5642 5634 5626 5617 5609 5601 5594 5588 5582 5573 5565 5560 5558 5556 5545 5539 5548 5552 5558 5557 5560 5565 5571 5570